Regional Weather Roundup
Issued by NWS

Home | Current Version | Previous Version | Graphics & Text | Print | Product List | Glossary On
Versions: 1 2 3 4 5 6 7 8 9 10 11 12 13 14 15 16 17 18 19 20 21 22 23 24 25 26 27 28 29 30 31 32 33 34 35 36 37 38 39 40 41 42 43 44 45 46 47 48 49 50
000
ASUS43 KFSD 210202
RWRSD

WEATHER ROUNDUP FOR SOUTH DAKOTA
NATIONAL WEATHER SERVICE SIOUX FALLS SD
900 PM CDT SUN MAY 20 2018

NOTE: "FAIR" INDICATES FEW OR NO CLOUDS BELOW 12,000 FEET WITH NO
SIGNIFICANT WEATHER AND/OR OBSTRUCTIONS TO VISIBILITY.


SDZ001>005-009-010-012>017-210300-
NORTHWEST AND NORTH CENTRAL SOUTH DAKOTA

CITY           SKY/WX    TMP DP  RH WIND       PRES   REMARKS
BUFFALO          N/A     57  37  47 SE15      30.00F
FAITH            N/A     55  42  61 SE9       30.09F
MOBRIDGE       CLEAR     61  35  37 E12       30.07F
$$

SDZ012>016-024>037-041>051-057-063-072>074-210300-
SOUTHWEST AND SOUTH CENTRAL SOUTH DAKOTA

CITY           SKY/WX    TMP DP  RH WIND       PRES   REMARKS
RAPID CTY ARPT MOCLDY    54  42  64 SE9       30.09S
PIERRE         CLOUDY    58  39  49 SE7       30.09S
CUSTER         CLEAR     47  31  53 SE5       30.13S
ELLSWORTH AFB  PTCLDY    55  42  60 SE10      30.09S
PHILIP         CLEAR     54  43  66 E7        30.09S
PINE RIDGE     MOCLDY    57  41  55 SE5       30.11R
SPEARFISH      FAIR      55  39  54 E15       30.05F
WINNER         CLOUDY    58  41  53 E9        30.11S
$$

SDZ004>011-016>023-039-040-210300-
NORTHEAST SOUTH DAKOTA

CITY           SKY/WX    TMP DP  RH WIND       PRES   REMARKS
ABERDEEN       MOCLDY    64  30  27 E7        30.11S
WATERTOWN      MOCLDY    61  30  31 NE7       30.09F
BROOKINGS      CLOUDY    60  49  66 S6        30.10F
SISSETON         N/A     63  31  30 SE5       30.10S
$$

SDZ017-020-022-023-036>040-048>070-210300-
SOUTHEAST SOUTH DAKOTA

CITY           SKY/WX    TMP DP  RH WIND       PRES   REMARKS
SIOUX FALLS    CLOUDY    56  52  86 NW3       30.09F
HURON          CLOUDY    60  40  47 SW5       30.09S
CHAMBERLAIN    CLOUDY    57  41  54 SE5       30.10F
MITCHELL       CLOUDY    60  47  61 SE6       30.10F
YANKTON        CLOUDY    55  50  83 CALM      30.11S
$$

ABBREVIATIONS USED IN REMARKS
   TC - TEMPERATURE IN CELSIUS
  WCI - WIND CHILL INDEX
   HX - HEAT INDEX
  VSB - VISIBILITY





USA.gov is the U.S. government's official web portal to all federal, state and local government web resources and services.